Lexington Weather

Lexington, Massachusetts, USA

25°F
1/21/2021 9:59am 
  • Lexington Conditions: Clear
  • Temperature: 24.6°F / -4.1°CWarmer 2.1°F than last hour.
  • Dew Point: 13.5°FIncreased 1.7°Fsince last hour.
  • Relative Humidity: 62%Decreased 1.0% since last hour.
  • Wind: Calm, 10-min avg: Calm, gust: 10 mph
  • Barometer: 29.78 in Steady
  • Visibility: 10 miles
  • Snow Today: Trace
  •   

Regional Weather Roundup
for Boston / Norton, MA

        
000
ASUS41 KBOX 150304
RWRBOX

REGIONAL WEATHER ROUNDUP
NATIONAL WEATHER SERVICE BOSTON/NORTON MA
1000 PM EST THU JAN 14 2021

NOTE:  "FAIR" INDICATES FEW OR NO CLOUDS BELOW 12,000 FEET WITH NO 
SIGNIFICANT WEATHER AND/OR OBSTRUCTIONS TO VISIBILITY.

MAZALL-150400-
EASTERN MASSACHUSETTS
  
CITY           SKY/WX    TMP DP  RH WIND       PRES   REMARKS
BOSTON         CLOUDY    34  33  96 N6        29.91R FOG     WCI  29  
BEVERLY        CLOUDY    34  32  92 NW5       29.90R FOG     WCI  30  
LAWRENCE       CLOUDY    34  33  96 N3        29.92S FOG              
BEDFORD        CLOUDY    34  32  92 CALM      29.89S FOG              
BLUE HILL        N/A     33  33 100 N7        29.86R WCI  27          
NORWOOD        CLOUDY    37  34  89 CALM      29.90R FOG              
MARSHFIELD     CLOUDY    39  39 100 CALM      29.89R FOG              
PLYMOUTH       CLOUDY    38  36  92 N8        29.87S FOG              
TAUNTON        CLOUDY    40  36  86 CALM      29.88R FOG              
NEW BEDFORD    CLOUDY    39  36  89 N6        29.88R FOG              
$$

MAZALL-150400-
CAPE COD AND THE ISLANDS
  
CITY           SKY/WX    TMP DP  RH WIND       PRES   REMARKS
FALMOUTH       LGT RAIN  39  39 100 MISG      29.86S FOG              
HYANNIS        CLOUDY    41  39  93 N5        29.85S FOG              
CHATHAM        LGT RAIN  42  39  89 NE5       29.88R                  
PROVINCETOWN   LGT RAIN  40  38  93 NE8       29.89R                  
NANTUCKET      CLOUDY    41  39  93 N7        29.85S FOG              
MARTHAS VNYRD  CLOUDY    40  37  89 NE7       29.86R FOG              
$$
 
MAZALL-150400-
CENTRAL AND WESTERN MASSACHUSETTS
  
CITY           SKY/WX    TMP DP  RH WIND       PRES   REMARKS
WORCESTER      FOG       33  31  92 NE3       29.86R VSB 1/2          
FITCHBURG      CLOUDY    34  34 100 CALM      29.90S FOG              
ORANGE         CLOUDY    33  32  96 CALM      29.89R FOG              
SPRINGFIELD    CLOUDY    33  33  99 CALM      29.88R FOG              
WESTFIELD      CLOUDY    33  33 100 N3        29.89R FOG              
NORTH ADAMS    CLOUDY    34  30  85 CALM      29.88R                  
PITTSFIELD     CLOUDY    32  31  96 W3        29.84S FOG              
$$
 
RIZALL-150400-
RHODE ISLAND
  
CITY           SKY/WX    TMP DP  RH WIND       PRES   REMARKS
PROVIDENCE     CLOUDY    39  36  89 N6        29.89R FOG              
NEWPORT        CLOUDY    38  35  89 N8        29.87R FOG              
BLOCK ISLAND   MOCLDY    39  37  92 N6        29.87S                  
SMITHFIELD     CLOUDY    35  35 100 N7        29.88R FOG     WCI  29  
WESTERLY       CLOUDY    38  34  85 CALM      29.87R                  
$$
 
CTZALL-150400-
CONNECTICUT
  
CITY           SKY/WX    TMP DP  RH WIND       PRES   REMARKS
BRADLEY INTL   CLOUDY    34  32  92 N5        29.89R FOG     WCI  30  
HARTFORD       CLOUDY    37  33  85 N6        29.89R FOG              
BRIDGEPORT     PTCLDY    39  32  76 N3        29.88R                  
DANBURY        MOCLDY    28  27  96 CALM      29.89R FOG              
GROTON         CLOUDY    40  34  79 N9        29.86R                  
NEW HAVEN      MOCLDY    38  32  79 N5        29.88R HAZE             
CHESTER        CLOUDY    37  34  87 NW6       29.86S HAZE             
MERIDEN        MOCLDY    35  31  85 CALM      29.89R                  
WILLIMANTIC    CLOUDY    37  34  89 N3        29.88R FOG              
OXFORD         CLOUDY    31  31 100 N6        29.87R FOG     WCI  25  
$$

MEZ002-015-021-024-NHZ003-005-008-011-012-014-VTZ005-008-150400-
NORTHERN NEW ENGLAND
  
CITY           SKY/WX    TMP DP  RH WIND       PRES   REMARKS
PORTLAND ME    CLOUDY    34  26  72 N6        29.92R WCI  29          
BANGOR ME      CLOUDY    32  25  75 CALM      29.92R                  
CONCORD NH     CLOUDY    32  26  78 CALM      29.90S                  
MANCHESTER NH  CLOUDY    35  32  88 CALM      29.89S FOG              
NASHUA NH      CLOUDY    34  34 100 CALM      29.91S FOG              
PORTSMOUTH NH  CLOUDY    34  31  91 NW3       29.90R FOG              
JAFFREY NH     CLOUDY    32  29  88 CALM      29.87R FOG              
KEENE NH       CLOUDY    32  29  88 CALM      29.89S FOG              
BURLINGTON VT  CLOUDY    33  27  78 CALM      29.92R                  
MT. WASHINGTON FOG       14  14 100 NW3         N/A  VSB 1/16         
$$

NYZ052-076-150400-
EASTERN NEW YORK
  
CITY           SKY/WX    TMP DP  RH WIND       PRES   REMARKS
ALBANY         CLOUDY    31  29  92 CALM      29.90R                  
NEW YORK CITY  PTCLDY    44  33  65 N7        29.88R                  
$$
 
ANZALL-150400-
MARINE OBSERVATIONS
  
STATION/POSITION TIME  TEMP    WIND        PRES    VSBY  WAVE
                       AIR SEA DIR/SP/G                  HT/PER
                 (UTC) (F)     (DEG/KT/KT) (MB)    (MI)  (FT/S)
BOSTON BUOY      0240   39 43   20/  8/ 10 1012.7R
BUZZARDS BAY     0200           40/ 13/ 14 1011.6R
NANTUCKET SOUND  0240      41  360/  6/  8   N/A
MASS BAY-STELLWA 0204   39      40/  8/ 10 1011.1R  1 7/8  1/ 8
ISLE OF SHOALS   0200   37      30/  4/  5 1012.2R
S OF BLOCK IS    0226      47                N/A           2/ 8
$$

......................KEY.........................
  SKY/WX - SKY CONDITION/PRESENT WEATHER
  TMP    - TEMPERATURE IN FAHRENHEIT
  DWPT   - DEWPOINT IN FAHRENHEIT
  RH     - RELATIVE HUMIDITY IN PERCENT
  WIND   - DIRECTION AND SPEED IN MPH
  PRES   - MEAN SEA LEVEL PRESSURE IN INCHES OF HG
  WCI    - WIND CHILL INDEX
  VSB    - VISIBILITY IN MILES
  HX     - HEAT INDEX
  TC     - TEMPERATURE IN CELSIUS
  VRB    - VARIABLE WIND DIRECTION
  N/A    - NOT AVAILABLE
  
      

Other recent Regional Weather Roundups

Thu Jan 21, 9:04am

Thu Jan 21, 7:04am

Thu Jan 21, 6:04am

Thu Jan 21, 5:04am

Thu Jan 21, 4:04am

Thu Jan 21, 3:04am

Thu Jan 21, 2:04am

Thu Jan 21, 1:04am

Thu Jan 21, 12:04am

Wed Jan 20, 11:04pm

Wed Jan 20, 10:05pm

Wed Jan 20, 9:04pm

Wed Jan 20, 8:04pm

Wed Jan 20, 7:04pm

Wed Jan 20, 6:05pm

Wed Jan 20, 5:05pm

Wed Jan 20, 1:04pm

Wed Jan 20, 12:04pm

Wed Jan 20, 11:04am

Wed Jan 20, 10:04am

Wed Jan 20, 9:05am

Wed Jan 20, 8:04am

Wed Jan 20, 7:04am

Wed Jan 20, 6:04am

Wed Jan 20, 5:04am

Wed Jan 20, 4:04am

Wed Jan 20, 3:05am

Wed Jan 20, 2:04am

Wed Jan 20, 1:04am

Wed Jan 20, 12:04am

Tue Jan 19, 11:04pm

Tue Jan 19, 10:04pm

Tue Jan 19, 9:04pm

Tue Jan 19, 8:04pm

Tue Jan 19, 7:04pm

Tue Jan 19, 6:05pm

Tue Jan 19, 5:04pm

Tue Jan 19, 4:05pm

Tue Jan 19, 3:04pm

Tue Jan 19, 2:04pm

Tue Jan 19, 1:04pm

Tue Jan 19, 12:05pm

Tue Jan 19, 11:04am

Tue Jan 19, 10:05am

Tue Jan 19, 9:04am

Tue Jan 19, 8:04am

Tue Jan 19, 7:04am

Tue Jan 19, 6:04am

Tue Jan 19, 5:04am

Tue Jan 19, 4:04am

Tue Jan 19, 3:04am

Tue Jan 19, 2:04am

Tue Jan 19, 1:04am

Tue Jan 19, 12:04am

Mon Jan 18, 11:04pm

Mon Jan 18, 10:04pm

Mon Jan 18, 9:04pm

Mon Jan 18, 8:05pm

Mon Jan 18, 7:04pm

Mon Jan 18, 6:05pm

Mon Jan 18, 5:04pm

Mon Jan 18, 4:04pm

Mon Jan 18, 3:04pm

Mon Jan 18, 2:04pm

Mon Jan 18, 1:04pm

Mon Jan 18, 12:04pm

Mon Jan 18, 11:04am

Mon Jan 18, 10:04am

Mon Jan 18, 9:04am

Mon Jan 18, 8:04am

Mon Jan 18, 7:04am

Mon Jan 18, 6:04am

Mon Jan 18, 5:04am

Mon Jan 18, 4:04am

Mon Jan 18, 3:04am

Mon Jan 18, 2:04am

Mon Jan 18, 1:04am

Mon Jan 18, 12:04am

Sun Jan 17, 11:04pm

Sun Jan 17, 10:04pm

Sun Jan 17, 9:04pm

Sun Jan 17, 8:04pm

Sun Jan 17, 7:04pm

Sun Jan 17, 6:04pm

Sun Jan 17, 5:04pm

Sun Jan 17, 4:05pm

Sun Jan 17, 3:04pm

Sun Jan 17, 2:04pm

Sun Jan 17, 1:04pm

Sun Jan 17, 12:04pm

Sun Jan 17, 11:04am

Sun Jan 17, 10:04am

Sun Jan 17, 9:04am

Sun Jan 17, 8:04am

Sun Jan 17, 7:04am

Sun Jan 17, 6:04am

Sun Jan 17, 5:04am

Sun Jan 17, 4:04am

Sun Jan 17, 3:04am

Sun Jan 17, 2:04am

Sun Jan 17, 1:04am

Sun Jan 17, 12:04am

Sat Jan 16, 11:05pm

Sat Jan 16, 10:04pm

Sat Jan 16, 9:04pm

Sat Jan 16, 8:05pm

Sat Jan 16, 7:04pm

Sat Jan 16, 6:04pm

Sat Jan 16, 5:05pm

Sat Jan 16, 4:05pm

Sat Jan 16, 3:05pm

Sat Jan 16, 2:04pm

Sat Jan 16, 1:04pm

Sat Jan 16, 12:04pm

Sat Jan 16, 11:04am

Sat Jan 16, 10:05am

Sat Jan 16, 9:04am

Sat Jan 16, 8:04am

Sat Jan 16, 7:04am

Sat Jan 16, 6:04am

Sat Jan 16, 5:04am

Sat Jan 16, 4:04am

Sat Jan 16, 3:05am

Sat Jan 16, 2:04am

Sat Jan 16, 1:04am

Sat Jan 16, 12:05am

Fri Jan 15, 11:05pm

Fri Jan 15, 10:04pm

Fri Jan 15, 9:04pm

Fri Jan 15, 8:04pm

Fri Jan 15, 7:05pm

Fri Jan 15, 6:05pm

Fri Jan 15, 5:05pm

Fri Jan 15, 4:05pm

Fri Jan 15, 3:04pm

Fri Jan 15, 2:05pm

Fri Jan 15, 1:04pm

Fri Jan 15, 12:05pm

Fri Jan 15, 11:04am

Fri Jan 15, 10:04am

Fri Jan 15, 9:05am

Fri Jan 15, 8:04am

Fri Jan 15, 7:04am

Fri Jan 15, 6:04am

Fri Jan 15, 5:05am

Fri Jan 15, 4:04am

Fri Jan 15, 3:04am

Fri Jan 15, 2:04am

Fri Jan 15, 1:04am

Fri Jan 15, 12:05am

Thu Jan 14, 11:04pm

Thu Jan 14, 9:04pm

Thu Jan 14, 8:05pm

Thu Jan 14, 7:04pm

Thu Jan 14, 6:04pm

Thu Jan 14, 5:04pm

Thu Jan 14, 4:05pm

Thu Jan 14, 3:04pm

Thu Jan 14, 2:04pm

Thu Jan 14, 1:04pm

Thu Jan 14, 12:05pm

Thu Jan 14, 11:05am

Thu Jan 14, 10:04am

Thu Jan 14, 9:04am

Thu Jan 14, 8:04am

Thu Jan 14, 7:04am

Thu Jan 14, 6:04am

Thu Jan 14, 5:04am

Thu Jan 14, 4:04am

Thu Jan 14, 3:04am

Thu Jan 14, 2:04am

Thu Jan 14, 1:04am

Thu Jan 14, 12:04am

Wed Jan 13, 11:04pm

Wed Jan 13, 10:04pm

Wed Jan 13, 9:04pm

Wed Jan 13, 8:05pm

Wed Jan 13, 7:04pm

Wed Jan 13, 6:04pm

Wed Jan 13, 5:04pm

Wed Jan 13, 4:04pm

Wed Jan 13, 3:05pm

Wed Jan 13, 2:04pm

Wed Jan 13, 1:04pm

Wed Jan 13, 12:04pm

Wed Jan 13, 11:04am

Wed Jan 13, 10:04am

Wed Jan 13, 9:05am

Wed Jan 13, 8:04am

Wed Jan 13, 7:04am

Wed Jan 13, 6:04am

Wed Jan 13, 5:04am

Wed Jan 13, 4:04am

Wed Jan 13, 3:04am

Wed Jan 13, 2:04am

Wed Jan 13, 1:04am

Wed Jan 13, 12:05am

Tue Jan 12, 11:04pm

Tue Jan 12, 10:04pm

Tue Jan 12, 9:04pm

Tue Jan 12, 8:05pm

Tue Jan 12, 7:04pm

Meta data:

ID: fc6adbe7-4acc-4867-a46b-26282ba60f9e
Link: https://api.weather.gov/products/fc6adbe7-4acc-4867-a46b-26282ba60f9e